Orbital elements: 2010 HZ108 Earth MOID = 0.1079 AU Epoch 2010 July 23.0 TT = JDT 2455400.5 MPC M 352.82346 (2000.0) P Q n 0.70683841 Peri. 106.57948 +0.19232631 +0.98050454 a 1.2481189 Node 174.05362 -0.98114035 +0.19293585 e 0.2082902 Incl. 22.87282 -0.01934434 -0.03723713 P 1.39 H 20.7 G 0.15...
Title: The search for Primordial Quark Nuggets among Near Earth Asteroids Authors: J.E. Horvath (IAG-Usp, Brazil) Primordial Quark Nuggets, remnants of the quark-hadron phase transition, may be hiding most of the baryon number in superdense chunks have been discussed for years always from the...
Title: q1 Eri: a solar-type star with a planet and a dust belt Authors: R. Liseau, C. Risacher, A. Brandeker, C. Eiroa, M. Fridlund, R. Nilsson, G. Olofsson, G. Pilbratt, P. Thebault Only very few solar-type stars exhibiting an infrared excess and harbouring planets are known to date. Indeed, merel...
Asteroid (1865) Cerberus makes its closest approach to the Earth (0.334 AU) on the 21st May, 2010. See moreEphemeris Date TT R. A. (2000) Decl. Delta r Elong. Phase V 2010 04 14 03 49.49 +09 20.3 0.709 0.585 34.9 101.3 18.6 2010 05 24 01 48.52 +36 44.3 0.336 0.754 33.2 132.7 19.8 2010 05 29 01 18.17 +39 15.6 0...
A possible magnitude 15.2 supernova was discovered on the 15th May, 2010, in the galaxy 2MASX J18260988+3014148 in the constellation Hercules. The supernova is located 4" West and 2" South from the center of the galaxy. Position(2000): RA = 18 26 09.27, Dec = +30 14 12.6
Orbital elements: 2010 HS20 Earth MOID = 0.0012 AU Epoch 2010 July 23.0 TT = JDT 2455400.5 MPC M 14.46601 (2000.0) P Q n 0.26941022 Peri. 157.41161 -0.19985142 +0.97904690 a 2.3742512 Node 101.04264 -0.90494581 -0.16914272 e 0.5820794 Incl. 2.28146 -0.37567604 -0.11339269 P 3.66 H 23.2 G 0.15 U 6 [...
Orbital elements: 2010 KA8 Earth MOID = 0.0972 AU Epoch 2010 July 23.0 TT = JDT 2455400.5 MPC M 62.27471 (2000.0) P Q n 0.47554024 Peri. 277.10167 -0.94502438 -0.28398429 a 1.6255907 Node 246.50685 +0.32297231 -0.88817288 e 0.4358892 Incl. 10.18165 -0.05116443 -0.36125041 P 2.07 H 21.6 G 0.15 U 8 [...
Event celebrates station ancestor Pioneers of an early U.S. military effort to build a space station will gather in Cocoa Beach today to reminisce about a program that was cut shortly after one test flight but which helped lay the groundwork for Skylab and, eventually, the International Space Stat...
Severe Cyclonic Storm Laila (01B) is forecast to make landfall in India probability for CAT 1 or above is 35% in about 30 hours probability for TS is 85% within 6 hours
Orbital elements: 2010 KW7 Epoch 2010 July 23.0 TT = JDT 2455400.5 MPC M 359.29988 (2000.0) P Q n 0.00752603 Peri. 336.62977 -0.55040799 +0.64983345 a 25.7884562 Node 104.32861 +0.82562885 +0.33036525 e 0.9042649 Incl. 147.24742 +0.12404860 +0.68452560 P 130.96 H 16.0 G 0.15 U 6 [url=http://ww...
Orbital elements: 2010 JC147 Epoch 2010 July 23.0 TT = JDT 2455400.5 MPC M 2.31297 (2000.0) P Q n 0.02181139 Peri. 190.30819 -0.94604851 -0.14994265 a 12.6866557 Node 334.68192 +0.32388813 -0.41183284 e 0.7299825 Incl. 42.19780 +0.00941799 -0.89883865 P 45.19 H 15.5 G 0.15 U 7 [url=http://www....
Orbital elements: 2010 JL41 Earth MOID = 0.1253 AU Epoch 2010 July 23.0 TT = JDT 2455400.5 MPC M 5.79645 (2000.0) P Q n 0.44209554 Peri. 164.41623 +0.88136160 +0.47155907 a 1.7065747 Node 167.32870 -0.44630806 +0.85109657 e 0.6612814 Incl. 7.56408 -0.15495434 +0.23079574 P 2.23 H 20.5 G 0.15 U 8 [u...
Another UFO has been spotted over the skies of Inverness. The sighting of "an orange fireball" in the sky over the city on Sunday night was reported by an RAF serviceman and his wife. Their description of the object is similar to that reported by Culloden man Rob Jackson who in March told the...
Orbital elements: 2010 JH80 Earth MOID = 0.0221 AU Epoch 2010 July 23.0 TT = JDT 2455400.5 MPC M 40.14543 (2000.0) P Q n 0.32237267 Peri. 252.80024 -0.46466039 -0.84118090 a 2.1065119 Node 228.22855 +0.88548614 -0.44219891 e 0.7803564 Incl. 21.76914 -0.00224116 -0.31124720 P 3.06 H 24.6 G 0.15 U 8...